CAPE
770 1203 1668 2079 1948 1779 1702 1399 1250 1472 1504 1300 1349 1407 1477 1414 1488 1468 1508 1532 1426 1295 1264 1052 1357 1228 1194 871 930 768 787 912 815 809 725 697 756 761 689 590 437 469 620
859 1652 1773 1742 1554 1745 1814 1505 1308 1354 1595 1604 1511 1527 1719 1799 1787 1659 1634 1609 1585 1613 1403 1360 1507 1410 1373 1094 1042 899 988 1022 717 654 657 412 502 686 559 361 414 460 481
1041 1497 1630 1654 1877 1825 1771 1618 1479 1534 1639 1779 1707 1757 1765 1890 1812 1920 1882 1793 1707 1635 1463 1689 1692 1553 1403 1380 1171 1041 1099 1084 741 743 456 500 522 688 611 93 100 566 108
1084 1424 1785 1769 1826 1714 1595 1571 1511 1651 1710 1819 1756 1924 1869 1982 1889 1903 1948 1933 2014 1866 1718 1793 1777 1562 1322 1559 1333 1188 963 724 557 189 214 492 573 710 360 115 25 750 394
1099 1395 1784 1827 1745 1622 1647 1572 1682 1794 1750 1819 1850 1989 1930 1968 2073 1875 1720 1928 1949 1981 1906 1957 1781 1661 1336 1344 1513 939 505 425 519 415 88 346 651 698 469 2 107 385 560
1105 1588 1771 1832 1865 1779 1656 1728 1768 1859 1942 1986 2037 2230 2064 2170 2021 1830 1818 1897 1818 1715 1823 1821 1793 1494 1189 1196 1487 908 469 373 349 149 151 206 132 270 457 344 516 506 501
1114 1538 1707 1821 1944 1935 1881 1892 1866 1972 2099 2158 2156 2426 1825 1967 2189 2188 1974 1792 1708 1722 1865 1845 1954 1728 907 1095 1446 929 556 615 428 308 237 107 0 283 304 811 849 341 199
796 1247 1637 1779 1889 2002 2074 2102 2015 2174 2284 2325 2173 1756 1895 2059 2159 1960 1837 1699 1564 1528 1691 1546 1828 1775 740 788 1445 478 480 407 677 383 296 131 132 515 610 660 690 412 502
997 899 1211 1544 1781 2031 2193 2296 2298 2301 2233 2071 2008 1968 2215 2170 1828 1828 1772 1796 1623 1449 1273 671 1314 1551 1074 569 1053 408 288 533 405 426 316 165 375 475 718 738 686 337 312
759 886 767 1001 1336 1588 1849 1913 2010 1963 1741 1566 1774 2187 2010 1991 1968 2052 2011 1815 1712 1500 1298 872 1107 1375 1112 627 598 580 191 200 376 429 352 94 396 549 652 564 479 347 537
442 424 673 777 836 985 1179 1512 1669 1755 1790 2012 2128 2116 1937 1887 2021 1965 1613 1259 1676 1550 1384 1346 1296 1446 1133 556 67 373 557 386 199 428 315 231 280 632 542 471 499 97 372
287 199 397 393 422 732 1066 1298 1371 1549 1682 1723 1703 1564 1469 1427 1601 1587 1479 844 1685 1843 1626 1269 1433 1363 1351 770 740 245 136 200 183 340 371 228 266 764 704 596 524 489 319
471 485 536 437 476 641 975 878 940 1068 1178 1080 1136 1153 968 930 968 1382 1498 1310 1124 1535 1391 1488 1162 1197 1132 688 527 320 4 14 268 345 271 406 138 818 816 805 503 380 432
1054 1042 1057 959 1004 1178 1540 1399 1031 928 1227 1167 1373 1515 1475 1293 1290 1171 1385 1275 967 1013 980 1097 918 941 857 581 650 371 104 41 157 256 147 184 201 424 1255 1012 734 300 581
1354 1323 1335 1304 1308 1427 1630 1657 1423 1248 1347 1393 1485 1518 1518 1205 1015 889 990 1044 971 861 976 822 1027 805 692 713 230 296 232 117 133 249 299 138 3 310 886 1210 1125 698 658
1372 1435 1548 1496 1198 1058 958 942 1035 1182 1081 1352 1354 1379 1260 1004 763 719 626 566 637 789 995 799 915 740 655 542 701 366 175 277 294 366 512 349 321 90 338 719 1087 950 677
1222 1442 1107 601 442 355 181 165 123 87 308 798 1053 901 1013 1007 912 762 511 395 317 174 395 644 476 409 239 209 176 390 777 742 595 264 402 482 606 506 474 560 482 582 520
1162 1286 904 638 624 94 204 191 41 1 0 109 348 709 426 773 1042 889 759 617 423 223 132 109 120 59 64 29 2 152 410 594 576 455 419 378 307 428 624 572 480 566 579
1223 1059 554 236 288 279 70 37 33 0 0 85 326 739 1180 1308 1149 910 665 803 419 162 136 122 54 14 4 1 0 15 300 488 508 543 480 472 483 356 334 567 420 402 405
1060 830 506 30 1 30 2 0 0 0 0 116 335 750 1058 1358 927 633 518 449 411 333 256 74 60 30 0 0 14 22 176 180 220 359 485 476 541 598 613 563 473 494 526
951 923 473 145 14 3 3 0 0 0 14 21 47 392 934 922 604 636 528 537 399 285 292 175 47 29 34 134 147 88 27 0 66 185 469 510 423 439 555 601 487 485 519
1261 1030 535 176 30 1 0 0 0 1 0 0 145 320 914 780 637 555 434 351 334 258 179 131 164 102 101 49 60 12 5 0 62 154 375 358 444 401 381 554 536 376 353
1589 1270 827 215 38 0 0 0 0 0 0 42 253 822 568 516 526 418 261 199 217 233 247 139 65 43 47 5 50 1 0 0 27 68 164 228 216 400 489 548 619 530 473
1607 1104 758 264 0 0 0 0 0 11 118 284 549 414 318 408 322 300 234 174 164 259 239 179 117 42 25 27 0 18 15 19 22 24 116 268 407 424 445 584 609 497 356
1694 1209 498 91 0 24 0 0 0 25 125 370 347 187 297 248 141 35 23 120 274 323 269 316 177 83 59 28 1 14 34 30 40 37 28 94 269 432 508 357 249 137 81
2128 1388 765 302 113 95 187 109 125 577 620 286 251 150 137 83 0 1 133 162 259 365 352 377 294 143 66 61 20 2 5 28 30 26 35 29 44 41 65 198 154 94 19
CIN
-61 -45 -14 -1 -6 -22 -31 -50 -56 -45 -38 -50 -46 -39 -33 -33 -27 -20 -15 -13 -13 -16 -5 -11 -1 0 0 -3 -1 -1 -1 0 -2 0 0 0 0 0 0 0 0 0 0
-82 -3 -12 -30 -44 -31 -26 -49 -61 -56 -34 -23 -26 -25 -21 -19 -19 -23 -22 -15 -8 -4 -3 -1 0 0 0 0 0 -7 -1 0 -2 -3 -2 -3 -4 0 0 0 -1 0 0
-88 -46 -40 -42 -29 -28 -26 -37 -46 -44 -36 -25 -24 -19 -20 -12 -14 -6 -11 -16 -13 -8 -5 0 0 0 0 0 0 0 0 0 -2 -1 -17 -9 -5 0 0 -22 -27 0 -19
-97 -64 -35 -35 -30 -31 -35 -36 -47 -38 -31 -23 -24 -12 -11 -6 -6 -5 -7 -6 -1 0 -3 -1 0 0 0 0 0 0 -1 -11 -14 -24 -28 -8 -1 0 0 -13 -65 0 0
-95 -73 -37 -36 -34 -37 -30 -37 -26 -21 -22 -17 -17 -12 -12 -4 0 -4 -13 -3 0 0 0 0 0 0 -4 -2 0 -19 -26 -16 -12 -24 -48 -16 -7 -2 0 -2 -14 0 0
-94 -63 -46 -35 -25 -32 -34 -26 -21 -15 -7 -5 -3 0 -1 0 0 -5 -6 -2 0 -1 0 0 0 0 -7 -5 0 -14 -23 -22 -17 -42 -49 -27 -39 -28 -6 -1 0 0 0
-103 -68 -52 -38 -28 -26 -25 -19 -19 -7 0 0 -1 0 -7 -5 0 -1 -2 -3 -3 -1 0 0 0 0 -5 -5 0 -7 -22 -16 -16 -22 -42 -64 0 -30 -25 0 0 -1 -3
-148 -105 -67 -47 -40 -28 -17 -8 -11 -1 0 0 0 -14 -6 -1 -2 -5 -8 -5 -3 -2 -1 -3 0 0 -13 -9 0 -16 -13 -17 -10 -27 -40 -59 -61 -17 -7 -2 0 0 0
-152 -149 -116 -76 -49 -25 -10 -1 0 0 -1 -1 -1 -5 0 0 -5 -5 -5 -2 -6 -8 -14 -56 -5 0 -16 -17 -8 -17 -29 -7 -12 -20 -25 -53 -35 -30 -5 0 0 -4 -1
-157 -138 -158 -132 -96 -69 -37 -31 -14 -11 -32 -47 -23 -1 -8 -2 -2 -1 -2 -5 -6 -9 -13 -38 -16 -5 -20 -22 -29 -27 -36 -21 -21 -26 -33 -67 -30 -24 -10 -10 -11 -16 0
-180 -180 -158 -146 -146 -121 -87 -53 -34 -19 -24 -7 -2 -1 -11 -16 -8 -10 -20 -32 -11 -9 -13 -14 -11 -1 -19 -39 -151 -57 -43 -41 -80 -36 -40 -44 -47 -20 -12 -11 -11 -50 -10
-176 -201 -175 -182 -180 -147 -103 -73 -46 -22 -15 -19 -15 -18 -26 -33 -26 -21 -22 -45 -15 -4 -4 -20 -12 -4 -3 -27 -25 -62 -104 -78 -92 -51 -32 -33 -43 -11 -6 -8 -17 -18 -33
-140 -152 -144 -172 -166 -140 -123 -128 -105 -81 -57 -74 -54 -38 -62 -56 -66 -27 -16 -20 -32 -13 -17 -11 -29 -16 -4 -39 -48 -65 -67 -125 -70 -73 -54 -17 -47 -13 -4 -1 -26 -40 -31
-106 -94 -95 -110 -113 -89 -76 -88 -97 -109 -69 -70 -58 -37 -39 -33 -31 -37 -27 -20 -43 -41 -31 -34 -39 -45 -38 -49 -46 -63 -90 -120 -89 -76 -92 -61 -55 -33 0 0 -7 -43 -18
-97 -89 -90 -90 -84 -67 -53 -44 -58 -65 -50 -45 -38 -36 -31 -39 -33 -30 -29 -29 -39 -46 -39 -49 -39 -49 -54 -47 -97 -94 -79 -82 -86 -79 -63 -78 -46 -43 -15 0 0 -12 -12
-71 -78 -81 -60 -52 -40 -36 -29 -39 -39 -35 -31 -26 -34 -34 -39 -46 -38 -47 -49 -50 -40 -43 -60 -46 -54 -60 -60 -50 -75 -115 -64 -48 -58 -46 -59 -37 -66 -46 -21 -1 -5 -15
-78 -64 -50 -127 -131 -107 -145 -187 -191 -175 -109 -52 -27 -36 -46 -52 -46 -47 -59 -59 -59 -87 -65 -54 -53 -59 -82 -77 -98 -56 -36 -41 -36 -73 -53 -37 -32 -26 -35 -27 -27 -11 -11
-85 -104 -125 -140 -91 -148 -88 -107 -223 -36 0 -153 -119 -64 -71 -58 -47 -30 -31 -49 -57 -88 -105 -119 -103 -81 -63 -131 -24 -80 -46 -44 -34 -28 -41 -50 -60 -41 -26 -24 -29 -22 -17
-147 -138 -171 -148 -99 -135 -131 -161 -188 -16 0 -214 -134 -72 -35 -40 -35 -20 -22 -18 -39 -68 -93 -107 -134 -74 -132 -24 0 -56 -58 -48 -42 -38 -32 -30 -40 -61 -55 -30 -26 -33 -29
-217 -231 -213 -234 -112 -200 -53 0 -26 0 -26 -208 -101 -57 -21 -25 -18 -12 -26 -21 -34 -39 -52 -97 -126 -134 0 0 -124 -90 -69 -77 -63 -42 -29 -34 -36 -37 -38 -32 -40 -31 -28
-250 -225 -216 -289 -361 -280 -315 0 0 0 -214 -179 -195 -91 -34 -22 -33 -28 -28 -20 -22 -26 -27 -57 -79 -89 -112 -86 -52 -75 -108 -1 -93 -84 -44 -35 -39 -48 -45 -43 -46 -53 -43
-207 -231 -286 -346 -365 -46 0 0 0 -132 0 0 -194 -124 -49 -14 -18 -19 -28 -21 -15 -17 -20 -27 -30 -28 -38 -96 -55 -81 -87 0 -89 -77 -39 -40 -38 -34 -55 -30 -41 -58 -57
-184 -208 -247 -368 -342 0 0 0 0 -44 0 -261 -133 -58 -27 -26 -29 -28 -43 -46 -33 -21 -16 -22 -30 -36 -25 -55 -79 -25 0 0 -73 -118 -69 -62 -54 -26 -25 -28 -35 -39 -47
-195 -266 -282 -366 0 0 0 0 0 -255 -182 -141 -62 -44 -49 -66 -55 -52 -56 -54 -41 -37 -33 -22 -18 -25 -34 -46 -23 -81 -89 -79 -57 -60 -79 -64 -49 -29 -27 -30 -28 -44 -51
-186 -221 -353 -448 -14 -358 0 0 -10 -163 -161 -100 -55 -67 -65 -68 -114 -193 -169 -43 -28 -32 -21 -11 -19 -17 -25 -33 -6 -80 -73 -94 -69 -30 -37 -56 -67 -39 -36 -53 -60 -86 -105
-135 -189 -267 -329 -333 -304 -240 -231 -182 -65 -51 -63 -45 -64 -93 -139 0 -82 -53 -37 -47 -35 -20 -20 -23 -30 -43 -36 -47 -59 -40 -50 -39 -48 -36 -40 -35 -77 -114 -68 -82 -110 -140
Wind_Speed
23 24 23 21 20 22 22 21 20 19 19 19 18 18 19 19 18 16 16 15 16 17 18 17 16 19 23 25 26 25 26 27 26 25 24 26 27 29 27 27 29 29 29
23 24 22 20 20 20 19 19 18 19 18 16 15 15 15 17 17 17 15 15 15 15 16 17 15 17 21 23 24 25 25 26 25 27 25 26 29 29 29 29 28 28 27
23 23 20 20 19 19 18 18 18 19 19 18 18 16 16 17 16 14 15 15 15 14 15 16 16 15 18 19 21 22 23 24 25 25 23 26 28 28 28 28 28 27 27
22 21 20 20 19 18 18 18 19 20 19 19 20 19 19 20 20 18 15 15 13 15 13 14 14 14 17 17 19 19 21 24 25 24 25 27 28 27 27 27 28 27 27
21 20 20 20 19 18 17 17 17 18 18 18 18 17 17 17 17 16 14 12 13 12 14 12 12 11 15 15 15 19 20 22 22 24 24 24 26 25 25 26 27 26 26
21 19 20 19 18 17 16 16 16 15 15 14 14 14 14 14 14 14 13 12 12 12 11 9 11 10 10 13 15 16 16 15 18 21 21 22 23 23 23 24 25 25 24
21 19 18 18 18 16 16 16 17 17 16 16 16 15 14 14 12 11 12 11 11 11 12 11 9 9 14 8 7 11 13 15 11 18 19 20 20 20 21 22 23 23 22
22 20 19 18 18 17 16 16 16 16 16 15 15 16 16 15 13 12 12 11 11 11 11 10 9 9 11 10 10 5 6 9 10 9 15 17 19 17 18 19 19 20 20
21 20 19 18 17 16 15 14 13 14 15 15 15 16 16 16 14 13 12 11 11 12 9 10 11 9 10 7 7 8 6 7 9 9 12 12 16 15 16 17 17 17 18
21 18 16 17 15 14 13 13 13 13 14 15 14 14 14 15 16 14 12 11 11 10 10 11 10 10 8 6 6 6 8 9 11 10 7 9 12 13 14 15 15 15 16
20 17 16 17 15 13 12 13 12 11 11 11 11 10 11 12 15 13 12 14 13 11 9 8 8 8 7 7 6 6 5 7 11 12 5 8 10 11 12 13 14 13 13
19 19 17 17 15 14 12 11 9 9 7 8 8 8 8 8 10 9 12 11 13 12 8 9 9 9 8 8 5 6 5 8 14 9 8 6 6 7 9 11 12 13 12
19 18 18 16 14 13 12 12 9 9 7 7 7 6 7 8 9 21 6 16 7 14 14 8 8 10 8 6 5 6 8 10 9 6 9 2 4 4 6 8 10 9 10
18 16 15 13 11 10 9 9 8 7 7 6 6 8 8 7 14 24 5 4 5 6 15 15 5 7 8 9 9 5 4 4 11 10 11 4 1 2 1 4 8 7 8
16 15 14 12 11 8 5 5 5 6 6 6 8 14 10 6 6 12 9 7 7 9 3 11 12 7 5 4 4 7 12 3 2 10 16 7 1 1 3 4 7 6 8
14 13 12 11 9 9 13 15 11 11 4 4 11 17 15 14 15 5 4 4 3 8 1 7 10 4 1 5 6 1 19 23 17 10 18 10 9 3 4 2 7 7 8
11 11 13 13 12 14 18 17 18 20 21 22 25 12 16 19 16 6 4 6 3 7 8 1 15 20 15 9 5 4 31 31 30 12 10 10 11 15 4 4 5 5 5
10 11 12 12 13 12 5 15 22 22 22 24 24 28 26 18 10 7 7 2 8 6 6 3 23 24 17 12 12 7 33 29 8 7 16 13 23 21 9 6 5 5 5
11 12 11 14 14 12 9 7 22 24 24 23 23 25 22 11 10 5 1 3 12 9 8 7 6 17 18 12 11 26 29 22 12 15 3 5 26 26 26 24 8 8 5
13 15 13 13 12 15 12 13 22 25 22 21 21 21 24 6 5 6 3 25 23 17 6 3 3 6 16 22 25 26 26 27 26 23 12 7 26 21 18 12 20 9 6
16 14 13 13 14 15 12 16 20 21 21 18 20 21 23 10 16 20 25 27 25 21 16 5 4 4 7 17 18 26 27 28 27 27 23 20 27 25 18 15 16 13 15
13 13 13 14 14 15 21 25 6 16 16 19 20 22 21 15 14 17 23 26 26 23 18 14 2 6 11 7 15 17 25 25 25 23 16 15 24 31 22 14 12 18 18
12 12 13 13 14 17 20 25 19 18 18 17 19 20 20 21 21 21 24 26 27 22 13 12 11 7 4 6 9 13 16 25 23 20 23 19 21 22 4 9 13 16 18
12 13 14 14 16 18 20 22 22 22 19 16 14 20 22 20 20 22 25 27 26 24 13 4 10 8 6 4 8 10 19 14 18 22 20 23 19 14 22 21 19 17 17
13 14 14 15 15 17 19 19 18 17 15 14 16 20 20 21 23 24 26 26 24 23 7 5 9 7 2 4 2 10 17 23 19 21 19 20 20 19 22 19 14 15 16
14 14 14 14 14 16 17 17 17 17 16 16 19 20 21 22 22 24 20 17 15 9 9 9 11 6 4 3 2 7 11 18 22 22 20 21 20 18 18 17 14 12 11
Wind_Direction
117 118 112 101 98 97 91 84 79 75 74 73 71 69 73 73 74 72 71 66 63 66 68 60 50 63 78 93 89 85 91 96 86 84 78 82 86 96 83 84 93 93 94
112 114 107 101 102 98 89 82 80 77 73 68 63 61 61 69 74 75 69 62 58 58 61 62 51 62 76 87 88 88 92 95 87 94 81 86 112 122 97 106 97 96 89
108 110 106 101 99 95 89 83 79 79 78 78 75 67 66 72 71 63 66 64 58 52 60 69 65 60 73 75 83 82 84 87 89 85 76 121 116 119 111 116 108 100 95
107 105 104 101 97 93 91 86 87 87 86 85 84 81 78 84 87 80 64 64 42 51 43 54 62 61 75 76 78 73 86 95 91 85 90 107 110 103 109 112 117 103 99
104 102 103 103 100 96 91 87 85 85 85 86 82 78 75 75 78 75 58 44 39 32 55 43 46 47 84 80 74 85 89 95 100 104 103 99 105 103 105 111 113 112 106
103 100 101 100 100 97 93 88 86 83 81 73 69 67 64 68 69 65 54 42 31 31 30 16 40 41 58 85 85 85 75 65 79 105 112 106 101 99 100 110 114 107 105
105 100 97 99 99 96 95 95 95 93 89 87 83 75 69 70 60 45 41 37 24 33 47 43 5 352 254 281 43 72 72 77 49 127 105 104 100 97 97 104 107 107 105
110 106 105 103 102 101 99 97 93 90 89 83 85 88 88 86 66 57 48 34 35 48 24 9 340 15 292 279 281 342 353 41 10 331 93 98 105 93 95 101 102 103 104
108 109 110 108 104 101 97 91 84 89 90 87 89 93 89 93 78 70 64 51 46 59 13 30 40 20 303 315 314 303 339 326 326 347 79 86 97 88 93 98 100 100 102
112 108 107 112 103 98 94 95 90 90 93 97 95 93 93 103 107 100 76 62 67 42 44 318 335 50 8 23 357 340 301 324 304 305 43 79 96 90 95 101 100 97 105
115 114 113 118 110 103 95 97 94 92 84 81 79 74 76 89 121 106 96 119 104 85 29 13 27 14 14 35 60 38 1 333 304 293 25 88 98 92 98 105 102 96 97
122 127 128 130 123 116 106 100 90 81 49 55 58 50 28 49 89 57 118 121 134 120 82 343 335 344 2 346 3 52 7 322 282 308 325 95 85 84 101 107 106 110 108
127 129 134 129 125 124 124 121 105 101 86 83 78 46 40 5 139 241 108 305 99 159 148 88 350 327 335 5 41 78 101 307 302 330 317 92 93 95 96 111 115 110 109
126 131 130 127 116 116 114 120 114 112 108 112 112 133 132 352 329 255 25 69 53 93 167 164 51 358 335 315 317 350 56 80 299 304 303 316 23 133 21 111 130 115 119
123 124 128 122 115 111 88 87 106 111 121 131 146 175 162 124 138 334 345 357 152 162 109 320 314 333 0 355 341 321 303 100 350 304 293 304 320 222 271 139 145 140 141
120 115 115 96 54 17 332 313 313 299 40 102 168 189 183 180 180 106 52 33 64 340 97 323 309 306 146 317 321 322 284 272 278 306 293 302 297 170 274 226 167 165 160
128 112 76 60 48 4 316 302 296 290 292 288 250 168 182 192 186 140 9 351 3 338 330 346 304 294 295 293 318 177 228 237 242 177 301 312 305 293 202 221 194 189 184
105 87 82 76 72 50 6 319 289 283 283 274 271 240 235 193 175 168 167 123 339 336 329 196 266 290 288 279 303 230 229 259 182 302 294 299 283 285 278 206 232 248 254
97 101 95 86 58 51 69 53 283 271 271 270 271 259 225 175 175 167 151 203 334 330 327 316 317 300 285 296 296 279 268 283 293 296 233 297 275 274 271 278 206 202 256
83 82 65 65 46 36 54 4 276 259 264 262 267 283 262 51 87 166 34 299 315 324 319 290 227 301 293 290 287 276 277 276 280 284 296 186 275 283 287 293 288 280 250
80 93 76 62 57 51 33 1 237 247 244 255 262 275 269 30 1 335 315 305 315 319 320 296 265 221 288 297 293 281 278 281 280 279 284 284 272 279 286 292 295 295 294
91 82 73 69 77 77 69 99 246 251 240 235 263 267 258 11 17 357 326 315 306 319 324 323 231 296 296 286 293 295 285 286 284 283 287 284 279 262 282 291 295 294 297
89 83 79 87 97 90 92 96 153 167 218 247 265 277 319 333 341 336 321 316 296 327 347 341 331 315 268 280 292 297 298 282 273 289 279 279 282 282 247 294 299 300 298
74 82 79 92 105 100 104 100 106 128 171 241 218 336 328 354 360 339 323 312 290 307 353 131 345 334 318 276 292 287 286 300 286 284 288 278 281 290 284 290 298 305 309
71 74 78 93 105 105 108 112 106 133 155 180 14 2 8 355 336 320 325 319 292 297 152 105 8 357 42 320 266 292 282 278 285 287 287 286 280 284 288 295 307 314 321
69 71 74 95 110 120 126 124 138 148 108 54 23 19 5 345 312 322 293 274 250 170 103 86 15 44 65 112 165 299 297 284 274 274 282 280 286 297 302 301 313 330 343